Powrót do katalogu

STARLINK-35416

AktywnyŁącznośćVLEO
NORAD 66248·PAYLOAD·🇺🇸 United States

Wystrzelony Oct 29, 2025 z Cape Canaveral Space Force Station

Loading…

Następne Przeloty (najbliższe 24 godziny)

TLE

ŚwieżeSource: CelesTrak SupGP

Epoka: Sep 14, 2026, 21:02 UTC

1 66248C 25245Q   26257.87687500 -.00013266  00000+0 -42682-3 0  2578
2 66248  53.1582 123.6578 0001360  85.6592 244.5424 15.31692757    11

Śledź STARLINK-35416 w czasie rzeczywistym z AllMySat

Download on the App Store